FW0596 Weather Reports


time (UTC)temp
C
wind
direction
speed
KPH
gust
KPH
rain 1hr
cm
rain 24hr
cm
rain mn
cm
humidity
%
barometer
mb
20260505083013 17 298 0.0 0.0 0.00 0.00 0.00 58 1009.4
20260505081502 17 280 0.0 0.0 0.00 0.00 0.00 61 1009.4
20260505080005 17 290 0.0 0.0 0.00 0.00 0.00 61 1009.4
20260505074600 17 286 0.0 0.0 0.00 0.00 0.00 63 1009.6
20260505073117 16 201 0.0 0.0 0.00 0.00 0.00 65 1009.6
20260505071602 16 204 0.0 0.0 0.00 0.00 0.00 69 1009.6
20260505070101 16 198 0.0 0.0 0.00 0.00 0.00 70 1009.6
20260505064553 16 198 0.0 0.0 0.00 0.00 0.00 72 1009.5
20260505063051 16 200 0.0 0.0 0.00 0.00 0.00 75 1009.6
20260505061550 15 200 0.0 0.0 0.00 0.00 0.00 78 1009.4
20260505060052 15 204 0.0 0.0 0.00 0.00 0.00 80 1009.6
20260505054549 14 204 0.0 0.0 0.00 0.00 0.00 79 1009.6
20260505053047 14 204 0.0 0.0 0.00 0.00 0.00 78 1009.5
20260505051558 14 204 0.0 0.0 0.00 0.00 0.00 79 1009.6
20260505041539 15 204 0.0 0.0 0.00 0.00 0.00 82 1009.6
20260505040038 16 204 0.0 0.0 0.00 0.00 0.00 81 1009.4
20260505034535 16 204 0.0 0.0 0.00 0.00 0.00 81 1009.4
20260505033037 16 204 0.0 0.0 0.00 0.00 0.00 80 1009.5
20260505031534 16 204 0.0 0.0 0.00 0.00 0.00 80 1009.4
20260505030034 16 204 0.0 0.0 0.00 0.00 0.00 80 1009.5
20260505024534 16 200 1.6 0.0 0.00 0.00 0.00 79 1009.5
20260505023033 17 183 3.2 0.0 0.00 0.00 0.00 79 1009.5
20260505021532 17 207 3.2 0.0 0.00 0.00 0.00 78 1009.4
20260505020031 17 201 3.2 0.0 0.00 0.00 0.00 77 1009.2
20260505014530 17 180 1.6 0.0 0.00 0.00 0.00 75 1009.4
20260505013029 17 192 1.6 0.0 0.00 0.00 0.00 71 1009.3
20260505011529 17 200 0.0 0.0 0.00 0.00 0.00 71 1009.0
20260505010028 17 196 3.2 0.0 0.00 0.00 0.00 71 1008.8
20260505004528 17 190 1.6 0.0 0.00 0.00 0.00 73 1008.8
20260505003028 17 192 1.6 0.0 0.00 0.00 0.00 73 1008.8
20260505001526 17 206 1.6 0.0 0.00 0.00 0.00 72 1008.9
20260505000028 17 178 1.6 0.0 0.00 0.00 0.00 72 1008.8
20260504234524 18 205 1.6 0.0 0.00 0.00 0.00 71 1008.8
20260504233023 18 188 3.2 0.0 0.00 0.00 0.00 68 1008.7
20260504231521 18 209 1.6 0.0 0.00 0.00 0.00 65 1008.8
20260504230021 20 208 1.6 0.0 0.00 0.00 0.00 60 1008.6
20260504224521 20 202 1.6 0.0 0.00 0.00 0.00 58 1008.8
20260504223020 19 220 3.2 0.0 0.00 0.00 0.00 58 1008.8
20260504221519 20 196 1.6 0.0 0.00 0.00 0.00 58 1008.8
20260504220034 20 219 3.2 0.0 0.00 0.00 0.00 54 1008.8
20260504214522 21 218 1.6 0.0 0.00 0.00 0.00 53 1008.7
20260504213017 20 197 3.2 0.0 0.00 0.00 0.00 53 1008.7
20260504211525 21 199 1.6 0.0 0.00 0.00 0.00 51 1008.7
20260504210016 21 173 3.2 0.0 0.00 0.00 0.00 46 1008.8
20260504204518 22 195 3.2 0.0 0.00 0.00 0.00 44 1008.8
20260504203018 22 208 1.6 0.0 0.00 0.00 0.00 41 1008.8
20260504201512 22 76 1.6 0.0 0.00 0.00 0.00 41 1009.1
20260504200011 22 195 1.6 0.0 0.00 0.00 0.00 40 1009.2
20260504194510 22 161 1.6 0.0 0.00 0.00 0.00 40 1009.4
20260504193011 22 198 1.6 0.0 0.00 0.00 0.00 38 1009.6
20260504191506 22 95 0.0 0.0 0.00 0.00 0.00 40 1009.9
20260504190004 22 86 1.6 0.0 0.00 0.00 0.00 39 1010.1
20260504184503 22 163 1.6 0.0 0.00 0.00 0.00 40 1010.4
20260504183002 21 198 3.2 0.0 0.00 0.00 0.00 38 1010.6
20260504181600 22 209 1.6 0.0 0.00 0.00 0.00 40 1010.8
20260504180058 22 204 1.6 0.0 0.00 0.00 0.00 40 1010.9
20260504174556 22 180 1.6 0.0 0.00 0.00 0.00 40 1011.0
20260504173055 21 198 0.0 0.0 0.00 0.00 0.00 40 1011.2
20260504171554 21 196 1.6 0.0 0.00 0.00 0.00 41 1011.5
20260504120120 13 252 0.0 0.0 0.00 0.00 0.00 55 1013.6
20260504110105 11 38 0.0 0.0 0.00 0.00 0.00 60 1013.8